HI1060 MBPV-MDJB

Flight info

Callsign HI1060
Flight time 0h 42m
Altitude 31000
Route JUELE W38 PTA A554 KODIX W36 DHG
Aircraft C25B/M-SDE2E3FGHRWXY/LB1

Departure

Time 2026-04-25 00:49
Airport Providenciales International Airport (MBPV)

Arrival

Time 2026-04-25 01:31
Airport La Isabela International Airport (MDJB)
Time Latitude Longitude Altitude Speed Heading
2026-04-25 00:39 21.77108 -72.27266 37 ft 0 kts 272°
2026-04-25 00:46 21.77115 -72.27305 37 ft 13 kts 327°
2026-04-25 00:46 21.77198 -72.27226 37 ft 21 kts 35°
2026-04-25 00:46 21.77386 -72.27084 32 ft 6 kts 180°
2026-04-25 00:47 21.77391 -72.27252 32 ft 37 kts 273°
2026-04-25 00:47 21.77403 -72.27537 33 ft 38 kts 273°
2026-04-25 00:47 21.77424 -72.27819 33 ft 37 kts 273°
2026-04-25 00:47 21.77439 -72.28095 32 ft 37 kts 272°
2026-04-25 00:48 21.77481 -72.28210 32 ft 10 kts 206°
2026-04-25 00:48 21.77435 -72.28127 32 ft 7 kts 93°
2026-04-25 00:48 21.77435 -72.28125 32 ft 0 kts 93°
2026-04-25 00:48 21.77434 -72.28117 32 ft 11 kts 91°
2026-04-25 00:49 21.77411 -72.27579 40 ft 135 kts 92°
2026-04-25 00:49 21.77307 -72.26177 194 ft 239 kts 96°
2026-04-25 00:49 21.77176 -72.24423 2229 ft 202 kts 92°
2026-04-25 00:49 21.77105 -72.22903 4218 ft 208 kts 94°
2026-04-25 00:50 21.77030 -72.21176 4491 ft 255 kts 92°
2026-04-25 00:50 21.76830 -72.19156 4874 ft 277 kts 108°
2026-04-25 00:50 21.75810 -72.17412 5554 ft 282 kts 135°
2026-04-25 00:50 21.74200 -72.16167 5970 ft 290 kts 146°
2026-04-25 00:51 21.72510 -72.14919 6928 ft 291 kts 147°
2026-04-25 00:51 21.70802 -72.13713 8460 ft 300 kts 149°
2026-04-25 00:51 21.69023 -72.12431 9843 ft 313 kts 148°
2026-04-25 00:51 21.67204 -72.11088 11183 ft 321 kts 148°
2026-04-25 00:52 21.65359 -72.09745 12486 ft 329 kts 149°
2026-04-25 00:52 21.63441 -72.08348 13800 ft 338 kts 150°
2026-04-25 00:52 21.61467 -72.06921 14989 ft 345 kts 150°
2026-04-25 00:52 21.59466 -72.05458 16208 ft 351 kts 150°
2026-04-25 00:53 21.57421 -72.03975 17393 ft 358 kts 151°
2026-04-25 00:53 21.55343 -72.02461 18544 ft 365 kts 151°
2026-04-25 00:53 21.53225 -72.00926 19572 ft 370 kts 152°
2026-04-25 00:53 21.51081 -71.99365 20610 ft 375 kts 152°
2026-04-25 00:54 21.48900 -71.97785 21629 ft 381 kts 152°
2026-04-25 00:54 21.46687 -71.96176 22619 ft 386 kts 152°
2026-04-25 00:54 21.44444 -71.94550 23585 ft 391 kts 153°
2026-04-25 00:54 21.42176 -71.92905 24375 ft 396 kts 153°
2026-04-25 00:55 21.39938 -71.91281 25156 ft 399 kts 153°
2026-04-25 00:55 21.37573 -71.89568 25934 ft 403 kts 153°
2026-04-25 00:55 21.36033 -71.88450 26425 ft 405 kts 153°
2026-04-25 00:55 21.33689 -71.86758 27130 ft 408 kts 153°
2026-04-25 00:56 21.31325 -71.85042 27811 ft 411 kts 153°
2026-04-25 00:56 21.29007 -71.83186 28423 ft 419 kts 149°
2026-04-25 00:56 21.26701 -71.81256 29055 ft 421 kts 150°
2026-04-25 00:56 21.24360 -71.79346 29624 ft 424 kts 151°
2026-04-25 00:57 21.22008 -71.77425 30149 ft 427 kts 150°
2026-04-25 00:57 21.19644 -71.75476 30584 ft 430 kts 150°
2026-04-25 00:57 21.17260 -71.73516 30947 ft 434 kts 151°
2026-04-25 00:57 21.14814 -71.71539 30956 ft 447 kts 150°
2026-04-25 00:58 21.12359 -71.69485 30961 ft 442 kts 150°
2026-04-25 00:58 21.09990 -71.67507 30961 ft 428 kts 151°
2026-04-25 00:58 21.07607 -71.65577 30958 ft 430 kts 151°
2026-04-25 00:59 21.02921 -71.61740 30957 ft 424 kts 151°
2026-04-25 00:59 20.98256 -71.57911 30959 ft 420 kts 151°
2026-04-25 01:00 20.93631 -71.54129 30956 ft 417 kts 151°
2026-04-25 01:00 20.89018 -71.50353 30956 ft 416 kts 152°
2026-04-25 01:01 20.84427 -71.46601 30958 ft 415 kts 152°
2026-04-25 01:01 20.79844 -71.42855 30957 ft 414 kts 152°
2026-04-25 01:02 20.75269 -71.39122 30956 ft 414 kts 152°
2026-04-25 01:02 20.70727 -71.35416 30959 ft 413 kts 151°
2026-04-25 01:03 20.66148 -71.31686 30960 ft 413 kts 151°
2026-04-25 01:03 20.61576 -71.27961 30959 ft 413 kts 151°
2026-04-25 01:04 20.57004 -71.24240 30959 ft 413 kts 151°
2026-04-25 01:04 20.52424 -71.20515 30956 ft 413 kts 151°
2026-04-25 01:05 20.47853 -71.16801 30964 ft 413 kts 150°
2026-04-25 01:05 20.43282 -71.13089 30960 ft 413 kts 150°
2026-04-25 01:06 20.38755 -71.09366 30959 ft 414 kts 149°
2026-04-25 01:06 20.34238 -71.05550 30954 ft 414 kts 150°
2026-04-25 01:07 20.29665 -71.01746 30954 ft 414 kts 149°
2026-04-25 01:07 20.25165 -70.97981 30957 ft 414 kts 150°
2026-04-25 01:08 20.20624 -70.94195 30956 ft 415 kts 150°
2026-04-25 01:08 20.16076 -70.90402 30955 ft 415 kts 150°
2026-04-25 01:09 20.11529 -70.86613 30961 ft 415 kts 150°
2026-04-25 01:09 20.06980 -70.82826 30959 ft 415 kts 150°
2026-04-25 01:10 20.02427 -70.79038 30954 ft 415 kts 150°
2026-04-25 01:10 19.97868 -70.75249 30939 ft 415 kts 150°
2026-04-25 01:11 19.93315 -70.71466 30922 ft 416 kts 150°
2026-04-25 01:11 19.88759 -70.67685 30913 ft 416 kts 150°
2026-04-25 01:12 19.84228 -70.63926 30910 ft 416 kts 150°
2026-04-25 01:12 19.79624 -70.60111 30910 ft 417 kts 150°
2026-04-25 01:13 19.75048 -70.56422 30908 ft 411 kts 155°
2026-04-25 01:13 19.70221 -70.53163 30912 ft 413 kts 154°
2026-04-25 01:14 19.65404 -70.49856 30906 ft 412 kts 155°
2026-04-25 01:14 19.60564 -70.46567 30907 ft 413 kts 154°
2026-04-25 01:15 19.55734 -70.43268 30920 ft 413 kts 154°
2026-04-25 01:15 19.50883 -70.39969 30926 ft 414 kts 154°
2026-04-25 01:16 19.46030 -70.36666 30927 ft 415 kts 154°
2026-04-25 01:16 19.41162 -70.33354 30922 ft 415 kts 154°
2026-04-25 01:17 19.36292 -70.30047 30921 ft 417 kts 154°
2026-04-25 01:17 19.31422 -70.26699 30914 ft 418 kts 153°
2026-04-25 01:18 19.26588 -70.23277 30916 ft 418 kts 154°
2026-04-25 01:18 19.21758 -70.19917 30918 ft 419 kts 154°
2026-04-25 01:19 19.16898 -70.16511 30923 ft 419 kts 154°
2026-04-25 01:19 19.11790 -70.13766 30923 ft 405 kts 168°
2026-04-25 01:20 19.06403 -70.12218 30921 ft 402 kts 172°
2026-04-25 01:20 19.01056 -70.10682 30770 ft 382 kts 173°
2026-04-25 01:20 18.98544 -70.09976 30373 ft 364 kts 174°
2026-04-25 01:21 18.96145 -70.09307 29252 ft 359 kts 174°
2026-04-25 01:21 18.93628 -70.08628 27237 ft 387 kts 173°
2026-04-25 01:21 18.91048 -70.07881 26551 ft 375 kts 172°
2026-04-25 01:21 18.89435 -70.07403 26542 ft 353 kts 173°
2026-04-25 01:22 18.89248 -70.07349 26539 ft 350 kts 173°
2026-04-25 01:22 18.86962 -70.06701 26415 ft 324 kts 174°
2026-04-25 01:22 18.84815 -70.06122 25589 ft 325 kts 174°
2026-04-25 01:23 18.82620 -70.05535 23772 ft 348 kts 173°
2026-04-25 01:23 18.80126 -70.04844 21341 ft 380 kts 171°
2026-04-25 01:23 18.77506 -70.04074 19088 ft 399 kts 169°
2026-04-25 01:23 18.74828 -70.03312 16801 ft 408 kts 168°
2026-04-25 01:24 18.72216 -70.02581 14488 ft 360 kts 167°
2026-04-25 01:24 18.69919 -70.01937 12177 ft 324 kts 167°
2026-04-25 01:24 18.67819 -70.01353 10121 ft 302 kts 166°
2026-04-25 01:24 18.65842 -70.00800 8127 ft 286 kts 165°
2026-04-25 01:25 18.64133 -70.00316 6469 ft 274 kts 165°
2026-04-25 01:25 18.62324 -69.99827 4731 ft 262 kts 168°
2026-04-25 01:25 18.60639 -69.99817 3934 ft 224 kts 188°
2026-04-25 01:25 18.59197 -70.00113 3342 ft 201 kts 194°
2026-04-25 01:26 18.57913 -70.00479 2744 ft 188 kts 194°
2026-04-25 01:26 18.56672 -70.00819 2128 ft 180 kts 197°
2026-04-25 01:26 18.55507 -70.01184 1707 ft 170 kts 195°
2026-04-25 01:26 18.54425 -70.01504 1623 ft 151 kts 197°
2026-04-25 01:27 18.53377 -70.01808 1640 ft 163 kts 195°
2026-04-25 01:27 18.52235 -70.02153 1678 ft 176 kts 201°
2026-04-25 01:27 18.51006 -70.02471 1709 ft 188 kts 188°
2026-04-25 01:28 18.48495 -70.02760 1784 ft 180 kts 166°
2026-04-25 01:28 18.47541 -70.01937 1842 ft 188 kts 122°
2026-04-25 01:28 18.47389 -70.00598 1684 ft 185 kts 75°
2026-04-25 01:28 18.48140 -69.99673 1474 ft 158 kts 28°
2026-04-25 01:29 18.49176 -69.99534 1328 ft 150 kts
2026-04-25 01:29 18.50160 -69.99450 1286 ft 132 kts 11°
2026-04-25 01:29 18.51037 -69.99351 1187 ft 125 kts
2026-04-25 01:29 18.51905 -69.99247 1048 ft 121 kts 12°
2026-04-25 01:30 18.52729 -69.99121 944 ft 121 kts 10°
2026-04-25 01:30 18.53593 -69.99011 800 ft 127 kts 10°
2026-04-25 01:30 18.54470 -69.98904 597 ft 128 kts
2026-04-25 01:30 18.55365 -69.98789 386 ft 131 kts
2026-04-25 01:31 18.56237 -69.98688 159 ft 118 kts
2026-04-25 01:31 18.56956 -69.98605 93 ft 80 kts
2026-04-25 01:31 18.57258 -69.98544 95 ft 23 kts 37°
2026-04-25 01:31 18.57382 -69.98452 97 ft 21 kts 36°
2026-04-25 01:32 18.57475 -69.98377 98 ft 10 kts 36°
2026-04-25 01:32 18.57539 -69.98330 98 ft 12 kts 18°
2026-04-25 01:32 18.57592 -69.98296 98 ft 5 kts 106°
2026-04-25 01:32 18.57598 -69.98283 98 ft 7 kts 359°
2026-04-25 01:33 18.57652 -69.98310 98 ft 4 kts 78°
2026-04-25 01:33 18.57639 -69.98286 98 ft 0 kts 95°
2026-04-25 01:33 18.57639 -69.98280 98 ft 0 kts 96°